Theta_e
301 300 301 301 302 302 302 304 306 306 308 309 311 313 316 317 318 319 320 321 326 325
300 300 300 301 302 302 303 304 305 307 307 308 309 310 311 313 316 318 320 321 325 326
300 301 301 301 301 302 303 304 305 305 306 306 307 309 310 311 315 318 318 320 323 326
300 301 301 301 301 302 302 303 303 304 305 305 306 306 307 308 311 313 316 318 320 323
300 300 300 300 301 302 302 303 303 303 303 304 304 304 306 307 309 312 314 316 319 320
298 298 299 300 301 302 301 302 302 302 301 302 303 304 305 307 308 311 314 316 318 320
297 298 299 300 301 301 302 302 303 303 302 303 303 304 304 305 307 310 313 315 318 320
298 299 300 300 300 302 302 302 303 303 303 303 304 304 303 303 305 308 312 314 317 320
298 299 299 300 300 301 301 301 302 302 302 302 303 303 303 304 304 306 309 310 313 321
298 298 299 300 300 300 300 301 301 301 302 301 302 301 301 302 303 305 307 310 315 318
297 297 299 299 299 300 301 301 301 302 302 302 303 301 300 300 303 305 308 318 318 319
297 297 298 298 299 300 301 302 305 305 304 303 303 301 300 301 303 308 312 319 323 323
298 298 298 299 299 301 302 304 304 305 307 306 305 303 300 301 306 310 316 319 320 314
298 298 299 299 300 300 301 302 302 301 303 303 305 306 302 301 309 313 315 320 326 325
Wind_Speed
7 6 8 10 9 8 8 9 9 9 8 10 11 12 11 10 9 10 11 14 14 12
7 9 10 12 11 9 9 9 10 10 10 11 11 12 13 11 12 12 11 13 15 14
9 9 11 10 11 11 11 11 11 11 12 12 12 12 13 12 15 14 11 11 15 15
10 10 11 11 12 12 12 12 12 12 13 13 13 13 13 14 16 17 15 15 16 18
11 11 12 12 13 13 13 12 12 13 14 14 16 16 15 16 15 17 18 19 18 20
11 12 13 13 13 13 14 14 14 15 17 16 16 16 17 16 17 18 18 17 19 20
12 13 13 14 14 14 15 16 15 15 15 15 15 15 18 19 18 19 18 20 21 21
12 13 13 14 15 16 16 16 16 17 16 16 15 13 17 18 18 20 21 19 23 23
12 13 13 14 16 16 17 17 17 17 17 17 13 24 27 22 17 20 20 19 19 17
12 13 14 15 16 17 17 17 18 18 18 18 19 27 26 28 17 19 21 21 20 19
14 16 15 15 16 16 15 17 17 18 18 17 17 27 28 29 19 20 22 21 22 25
15 14 15 16 17 16 15 16 15 16 18 17 19 27 29 25 18 18 19 15 20 19
13 14 15 16 16 14 15 15 12 16 15 21 21 27 27 25 14 13 13 16 17 21
14 15 15 15 14 14 15 15 14 15 15 18 20 22 23 21 15 11 8 10 13 16
Wind_Direction
266 265 267 272 269 267 266 270 269 263 256 258 265 268 259 246 242 237 242 251 248 241
265 263 266 275 266 266 265 266 260 258 264 262 263 261 260 257 250 244 240 248 251 238
273 270 275 276 271 272 274 271 267 267 267 266 261 259 259 258 251 239 242 244 246 241
285 286 286 279 282 279 277 273 270 269 269 267 265 263 258 253 252 247 243 244 243 241
295 294 286 280 280 280 279 276 274 272 271 269 272 268 260 255 250 245 239 238 240 246
292 286 281 280 285 288 287 282 277 279 281 279 278 270 265 259 254 248 246 241 243 241
285 282 282 286 287 284 283 284 281 274 268 264 263 262 266 265 257 249 243 244 237 241
284 285 287 289 288 287 289 287 284 278 271 265 256 256 259 257 254 249 247 251 242 239
291 291 291 291 292 292 291 287 283 279 274 269 261 262 257 253 254 255 252 250 261 249
294 297 300 298 297 293 294 292 287 284 277 269 261 260 260 250 249 249 248 246 232 237
309 308 304 302 297 300 302 297 289 284 276 265 265 265 262 259 250 252 247 243 248 225
315 306 305 300 302 304 302 299 304 291 282 276 271 267 263 260 259 247 256 259 253 207
309 302 301 302 306 304 303 301 306 307 304 288 280 276 268 257 246 254 275 293 248 237
313 310 305 309 309 310 307 303 303 306 306 300 289 292 284 252 248 255 258 267 228 187